K0GDI Weather Reports


time (UTC)temp
C
wind
direction
speed
KPH
gust
KPH
rain 1hr
cm
rain 24hr
cm
rain mn
cm
humidity
%
barometer
mb
20260906052515 24 270 1.6 1.6 0.00 0.00 0.00 82 1013.3
20260906051459 24 259 1.6 1.6 0.00 0.00 0.00 81 1013.3
20260906045427 24 207 1.6 1.6 0.00 0.00 0.00 80 1013.3
20260906044410 24 334 1.6 1.6 0.00 0.00 0.00 79 1013.3
20260906043354 24 232 1.6 1.6 0.00 0.00 0.00 79 1013.3
20260906042338 25 205 1.6 1.6 0.00 0.00 0.00 80 1013.3
20260906041322 25 134 1.6 1.6 0.00 0.00 0.00 79 1013.3
20260906040305 25 222 1.6 1.6 0.00 0.00 0.00 80 1013.3
20260906035249 25 244 1.6 1.6 0.00 0.00 0.00 79 1013.3
20260906033215 25 147 1.6 1.6 0.00 0.00 0.00 79 1013.3
20260906032157 25 208 1.6 1.6 0.00 0.00 0.00 79 1013.3
20260906031141 25 59 1.6 1.6 0.00 0.00 0.00 78 1013.3
20260906030125 25 304 1.6 1.6 0.00 0.00 0.00 76 1013.3
20260906025105 26 252 1.6 3.2 0.00 0.00 0.00 76 1013.3
20260906024048 26 165 1.6 3.2 0.00 0.00 0.00 76 1013.3
20260906023029 26 270 1.6 1.6 0.00 0.00 0.00 73 1013.3
20260906022009 26 132 1.6 1.6 0.00 0.00 0.00 74 1013.3
20260906020950 26 140 1.6 1.6 0.00 0.00 0.00 74 1013.3
20260906015934 26 156 1.6 3.2 0.00 0.00 0.00 73 1013.3
20260906014912 27 185 0.0 1.6 0.00 0.00 0.00 70 1013.3
20260906013853 27 186 1.6 1.6 0.00 0.00 0.00 69 1013.3
20260906012836 27 178 1.6 1.6 0.00 0.00 0.00 68 1013.3
20260906011818 28 235 1.6 1.6 0.00 0.00 0.00 67 1013.3
20260906010802 28 301 1.6 3.2 0.00 0.00 0.00 65 1013.3
20260906005746 28 331 1.6 3.2 0.00 0.00 0.00 64 1013.3
20260906004730 29 289 1.6 3.2 0.00 0.00 0.00 62 1013.3
20260906003713 30 195 1.6 1.6 0.00 0.00 0.00 60 1013.3
20260906002652 30 319 1.6 4.8 0.00 0.00 0.00 58 1013.3
20260906001635 31 28 1.6 3.2 0.00 0.00 0.00 56 1013.3
20260906000616 31 287 1.6 3.2 0.00 0.00 0.00 54 1013.3
20260905235558 32 258 1.6 3.2 0.00 0.00 0.00 51 1013.3
20260905234541 32 203 1.6 3.2 0.00 0.00 0.00 49 1013.3
20260905233525 32 106 1.6 4.8 0.00 0.00 0.00 48 1013.3
20260905232509 33 189 1.6 8.0 0.00 0.00 0.00 48 1013.3
20260905231453 33 213 1.6 3.2 0.00 0.00 0.00 47 1013.3
20260905225423 33 144 8.0 16.1 0.00 0.00 0.00 43 1013.3
20260905224406 34 147 8.0 19.3 0.00 0.00 0.00 42 1013.3
20260905223350 35 130 6.4 19.3 0.00 0.00 0.00 41 1013.3
20260905222334 36 145 1.6 4.8 0.00 0.00 0.00 35 1013.3
20260905221318 36 332 1.6 4.8 0.00 0.00 0.00 37 1013.3
20260905220259 37 316 1.6 4.8 0.00 0.00 0.00 38 1013.3
20260905215243 37 296 1.6 6.4 0.00 0.00 0.00 37 1013.3
20260905214226 38 254 1.6 8.0 0.00 0.00 0.00 35 1013.3
20260905213209 38 343 1.6 8.0 0.00 0.00 0.00 33 1013.3
20260905212153 38 259 1.6 8.0 0.00 0.00 0.00 33 1013.3
20260905211136 39 326 1.6 6.4 0.00 0.00 0.00 33 1013.3
20260905210119 39 319 1.6 6.4 0.00 0.00 0.00 34 1013.3
20260905205102 40 290 1.6 8.0 0.00 0.00 0.00 32 1013.3
20260905204043 40 331 1.6 6.4 0.00 0.00 0.00 31 1013.3
20260905203027 40 339 1.6 4.8 0.00 0.00 0.00 31 1013.3
20260905202011 40 213 3.2 8.0 0.00 0.00 0.00 32 1013.3
20260905195941 39 329 3.2 9.7 0.00 0.00 0.00 32 1013.3
20260905194925 39 22 3.2 9.7 0.00 0.00 0.00 33 1013.3
20260905193908 40 38 3.2 6.4 0.00 0.00 0.00 31 1013.3
20260905192851 40 233 3.2 6.4 0.00 0.00 0.00 31 1013.3
20260905191833 38 41 3.2 8.0 0.00 0.00 0.00 32 1013.3
20260905190817 38 314 1.6 8.0 0.00 0.00 0.00 35 1013.3
20260905185801 39 346 1.6 9.7 0.00 0.00 0.00 33 1013.3
20260905184744 40 352 3.2 8.0 0.00 0.00 0.00 30 1013.3
20260905183728 39 175 3.2 9.7 0.00 0.00 0.00 35 1013.3
20260905182712 40 252 3.2 6.4 0.00 0.00 0.00 32 1013.3
20260905181656 39 263 3.2 8.0 0.00 0.00 0.00 34 1013.3
20260905180640 39 160 1.6 6.4 0.00 0.00 0.00 34 1013.3
20260905175624 39 218 3.2 8.0 0.00 0.00 0.00 37 1013.3
20260905174607 39 209 3.2 9.7 0.00 0.00 0.00 34 1013.3
20260905173550 38 56 3.2 8.0 0.00 0.00 0.00 37 1013.3
20260905172534 38 232 3.2 9.7 0.00 0.00 0.00 38 1013.3
20260905171512 38 209 1.6 4.8 0.00 0.00 0.00 39 1013.3
20260905170456 38 216 3.2 6.4 0.00 0.00 0.00 40 1013.3
20260905165440 38 289 1.6 6.4 0.00 0.00 0.00 38 1013.3
20260905164424 37 237 3.2 8.0 0.00 0.00 0.00 40 1013.3
20260905163407 37 236 3.2 6.4 0.00 0.00 0.00 41 1013.3
20260905162352 37 211 1.6 6.4 0.00 0.00 0.00 40 1013.3
20260905161336 37 225 1.6 4.8 0.00 0.00 0.00 42 1013.3
20260905160319 36 281 3.2 11.3 0.00 0.00 0.00 43 1013.3
20260905155306 37 279 1.6 6.4 0.00 0.00 0.00 43 1013.3
20260905154247 36 275 1.6 6.4 0.00 0.00 0.00 44 1013.3
20260905153229 36 232 1.6 6.4 0.00 0.00 0.00 44 1013.3
20260905151157 35 7 1.6 4.8 0.00 0.00 0.00 48 1013.3
20260905150140 34 327 3.2 9.7 0.00 0.00 0.00 48 1013.3
20260905144110 33 307 3.2 8.0 0.00 0.00 0.00 51 1013.3
20260905142037 33 314 1.6 6.4 0.00 0.00 0.00 52 1013.3
20260905141021 32 220 1.6 6.4 0.00 0.00 0.00 53 1013.3
20260905140005 32 154 1.6 6.4 0.00 0.00 0.00 56 1013.3
20260905134950 31 228 1.6 4.8 0.00 0.00 0.00 56 1013.3
20260905133933 30 184 1.6 3.2 0.00 0.00 0.00 61 1013.3
20260905131901 28 112 1.6 3.2 0.00 0.00 0.00 69 1013.3
20260905130844 27 93 1.6 3.2 0.00 0.00 0.00 73 1013.3
20260905125826 27 60 1.6 4.8 0.00 0.00 0.00 74 1013.3
20260905124807 26 147 1.6 1.6 0.00 0.00 0.00 79 1013.3
20260905123751 25 142 1.6 1.6 0.00 0.00 0.00 83 1013.3
20260905122731 24 157 0.0 1.6 0.00 0.00 0.00 85 1013.3
20260905121712 23 332 1.6 1.6 0.00 0.00 0.00 88 1013.3
20260905120656 22 283 1.6 1.6 0.00 0.00 0.00 92 1013.3
20260905115639 22 189 1.6 1.6 0.00 0.00 0.00 94 1013.3
20260905114622 22 159 1.6 3.2 0.00 0.00 0.00 94 1013.3
20260905113601 22 179 1.6 1.6 0.00 0.00 0.00 93 1013.3
20260905111528 22 180 1.6 1.6 0.00 0.00 0.00 91 1013.3
20260905110510 22 121 1.6 1.6 0.00 0.00 0.00 91 1013.3
20260905105449 23 148 1.6 1.6 0.00 0.00 0.00 92 1013.3
20260905104429 23 154 1.6 1.6 0.00 0.00 0.00 92 1013.3
20260905102357 23 190 1.6 1.6 0.00 0.00 0.00 88 1013.3
20260905101337 23 273 1.6 3.2 0.00 0.00 0.00 88 1013.3
20260905100318 23 308 1.6 3.2 0.00 0.00 0.00 90 1013.3
20260905095259 23 171 1.6 1.6 0.00 0.00 0.00 92 1013.3
20260905094240 23 166 0.0 1.6 0.00 0.00 0.00 91 1013.3
20260905093223 23 178 1.6 1.6 0.00 0.00 0.00 90 1013.3
20260905092201 23 311 1.6 3.2 0.00 0.00 0.00 90 1013.3
20260905091141 23 173 1.6 1.6 0.00 0.00 0.00 90 1013.3
20260905085111 23 135 1.6 1.6 0.00 0.00 0.00 90 1013.3
20260905084054 23 333 1.6 1.6 0.00 0.00 0.00 89 1013.3
20260905083037 23 206 1.6 1.6 0.00 0.00 0.00 91 1013.3
20260905082018 23 159 1.6 1.6 0.00 0.00 0.00 90 1013.3
20260905081001 24 161 1.6 1.6 0.00 0.00 0.00 89 1013.3
20260905075947 24 210 1.6 1.6 0.00 0.00 0.00 87 1013.3
20260905073911 24 169 1.6 1.6 0.00 0.00 0.00 87 1013.3
20260905072856 24 169 1.6 1.6 0.00 0.00 0.00 87 1013.3
20260905071840 24 201 1.6 1.6 0.00 0.00 0.00 87 1013.3
20260905070823 24 183 1.6 1.6 0.00 0.00 0.00 86 1013.3
20260905065807 25 149 1.6 1.6 0.00 0.00 0.00 85 1013.3
20260905064744 25 132 1.6 1.6 0.00 0.00 0.00 85 1013.3
20260905063725 25 187 1.6 1.6 0.00 0.00 0.00 84 1013.3
20260905062705 25 210 1.6 1.6 0.00 0.00 0.00 84 1013.3
20260905061650 25 278 1.6 1.6 0.00 0.00 0.00 84 1013.3
20260905060633 25 339 1.6 1.6 0.00 0.00 0.00 83 1013.3
20260905055615 25 360 1.6 1.6 0.00 0.00 0.00 82 1013.3
20260905053508 26 91 1.6 3.2 0.00 0.00 0.00 80 1013.3